Regional Weather Roundup
Issued by NWS

Home | Current Version | Previous Version | Text Only | Print | Product List | Glossary Off
Versions: 1 2 3 4 5 6 7 8 9 10 11 12 13 14 15 16 17 18 19 20 21 22 23 24 25 26 27 28 29 30 31 32 33 34 35 36 37 38 39 40 41 42 43 44 45 46 47 48 49 50

000
ASUS45 KCYS 230810
RWRWY

WYOMING REGIONAL WEATHER ROUNDUP
NATIONAL WEATHER SERVICE CHEYENNE WY
200 AM MDT MON MAY 23 2016

NOTE:  "FAIR" INDICATES FEW OR NO CLOUDS BELOW 12,000 FEET
WITH NO SIGNIFICANT WEATHER AND/OR OBSTRUCTIONS TO VISIBILITY.

WYZ001-230900-
YELLOWSTONE NATIONAL PARK

CITY           SKY/WX    TMP DP  RH WIND       PRES   REMARKS
LK YELLOWSTONE   N/A     32  27  81 VRB3      29.97S
W YELLOWSTONE  NOT AVBL

$$
WYZ002>013-054>058-071-098>099-230900-
NORTHERN WYOMING

CITY           SKY/WX    TMP DP  RH WIND       PRES   REMARKS
JACKSON        FAIR      34  32  93 CALM      29.98F
CODY           FAIR      48  23  37 SW9G18    29.84R
GREYBULL       FAIR      53  25  33 CALM      29.81R
WORLAND        FAIR      44  25  47 SE10      29.82S
SHERIDAN       FAIR      45  27  49 CALM      29.76S
BUFFALO        FAIR      47  24  40 SE3       29.80F
GILLETTE       FAIR      38  30  73 SW9       29.79R WCI  31
HULETT         FAIR      50  34  53 SW7       29.78S
NEWCASTLE      FAIR      41  34  75 CALM      29.81R

$$
WYZ014>020-022>026-101>103-230900-
CENTRAL WYOMING

CITY           SKY/WX    TMP DP  RH WIND       PRES   REMARKS
BIG PINEY      FAIR      29  24  82 NW7       30.01F WCI  22
PINEDALE       FAIR      28  28 100 CALM      30.02S
DUBOIS         FAIR      32  27  80 NW13      29.94F WCI  22
LANDER         FAIR      47  18  31 N8        29.87F
RIVERTON       FAIR      41  22  46 NW9       29.89S
CASPER         FAIR      43  29  57 SW9       29.88S
DOUGLAS        FAIR      41  32  70 W10       29.89R

$$
WYZ021-027>030-104>119-230900-
SOUTHERN WYOMING

CITY           SKY/WX    TMP DP  RH WIND       PRES   REMARKS
EVANSTON       FAIR      35  30  82 SE5       30.02F WCI  31
KEMMERER         N/A     32  30  93 CALM      30.02F
FORT BRIDGER   SUNNY     36  36 100 W6        30.04F WCI  31
ROCK SPRINGS   FAIR      36  31  82 W10       30.01F WCI  28
DIXON          FAIR      32  30  90 CALM      30.04F
RAWLINS        FAIR      37  30  75 SW13      29.98F WCI  29
SARATOGA       FAIR      32  32 100 S10G18    30.00F WCI  24
LARAMIE        FAIR      33  28  81 E8        29.99R WCI  26
CHEYENNE       FAIR      44  28  53 NW16      29.94R
TORRINGTON     NOT AVBL
PINE BLUFFS    PTSUNNY   46  32  57 NW14      29.91S

$$



USA.gov is the U.S. government's official web portal to all federal, state and local government web resources and services.